sat.trackr.live / text

‹ back to catalog

IRNSS-1E

NORAD 41241 · 2016-003A

PAYLOAD ACTIVE UNKNOWN

§ Identity

Operator
Country
IND
Launch date
2016-01-20
Launch site
SRILR
Launch vehicle
Mass (kg)
RCS (m²)
9.94

Purposes: comms, nav

External: N2YO · Heavens-Above · Gunter

§ Orbital elements

Epoch: 2026-05-24T16:17:56.290272Z

Period
1,436.04 min
Inclination
33.1851°
Eccentricity
0.0017779
Mean motion
1.00275732 rev/d
Perigee alt
35,710.5 km
Apogee alt
35,860.5 km
Semi-major
42,163.6 km
B*
0.0000e+0
RAAN
60.0904°
Arg perigee
181.3320°
Mean anomaly
357.1274°
Rev number
3,784

§ Raw data

IRNSS-1E1 41241U 16003A   26144.67912373 -.00000309  00000+0  00000+0 0  99982 41241  33.1851  60.0904 0017779 181.3320 357.1274  1.00275732 37841

JSON: /api/v1/satellites/41241 · /tle

For live sub-satellite position, see the globe view (requires WebGL).

§ Visibility from observer

Set your observer location to see the next 7 days of passes ≥ 10°. The values pass through the URL so the page stays shareable.

No JS? Fill the form by hand. The geolocation button needs JavaScript.